Time,TemperatureF,DewpointF,PressureIn,WindDirection,WindDirectionDegrees,WindSpeedMPH,WindSpeedGustMPH,Humidity,HourlyPrecipIn,Conditions,Clouds,dailyrainin,SoftwareType,DateUTC
2013-03-22 00:04:00,55.0,52.0,29.96,ESE,114,0.0,0.0,89,0.00,,,0.01,,2013-03-22 04:04:00,
2013-03-22 00:12:00,55.0,52.0,29.96,ESE,114,0.0,0.0,89,0.00,,,0.01,,2013-03-22 04:12:00,
2013-03-22 00:23:00,55.0,52.0,29.95,ESE,114,0.0,0.0,90,0.00,,,0.01,,2013-03-22 04:23:00,
2013-03-22 00:32:00,54.0,51.0,29.96,ESE,114,0.0,0.0,91,0.00,,,0.01,,2013-03-22 04:32:00,
2013-03-22 00:43:00,54.0,51.0,29.96,ESE,114,0.0,0.0,91,0.00,,,0.01,,2013-03-22 04:43:00,
2013-03-22 00:52:00,54.0,52.0,29.95,ESE,114,0.0,0.0,92,0.00,,,0.01,,2013-03-22 04:52:00,
2013-03-22 01:02:00,54.0,52.0,29.95,ESE,114,0.0,0.0,93,0.00,,,0.01,,2013-03-22 05:02:00,
2013-03-22 01:12:00,54.0,52.0,29.95,ESE,114,0.0,0.0,93,0.00,,,0.01,,2013-03-22 05:12:00,
2013-03-22 01:22:00,54.0,52.0,29.95,ESE,114,0.0,0.0,94,0.00,,,0.01,,2013-03-22 05:22:00,
2013-03-22 01:32:00,53.0,51.0,29.94,ESE,114,0.0,0.0,94,0.00,,,0.01,,2013-03-22 05:32:00,
2013-03-22 01:42:00,53.0,51.0,29.94,ESE,114,0.0,0.0,94,0.00,,,0.01,,2013-03-22 05:42:00,
2013-03-22 01:52:00,53.0,51.0,29.94,ESE,114,0.0,0.0,94,0.00,,,0.01,,2013-03-22 05:52:00,
2013-03-22 02:02:00,53.0,52.0,29.94,ESE,114,0.0,0.0,95,0.00,,,0.01,,2013-03-22 06:02:00,
2013-03-22 02:13:00,53.0,52.0,29.94,ESE,114,0.0,0.0,95,0.00,,,0.01,,2013-03-22 06:13:00,
2013-03-22 02:22:00,53.0,52.0,29.94,ESE,114,0.0,0.0,95,0.00,,,0.01,,2013-03-22 06:22:00,
2013-03-22 02:32:00,53.0,52.0,29.94,ESE,114,0.0,0.0,96,0.00,,,0.01,,2013-03-22 06:32:00,
2013-03-22 02:42:00,53.0,52.0,29.94,ESE,114,0.0,0.0,96,0.00,,,0.01,,2013-03-22 06:42:00,
2013-03-22 02:52:00,52.0,51.0,29.93,ESE,114,0.0,0.0,96,0.00,,,0.01,,2013-03-22 06:52:00,
2013-03-22 03:03:00,52.0,51.0,29.93,ESE,114,0.0,0.0,96,0.00,,,0.01,,2013-03-22 07:03:00,
2013-03-22 03:12:00,52.0,51.0,29.93,ESE,114,0.0,0.0,96,0.00,,,0.01,,2013-03-22 07:12:00,
2013-03-22 03:22:00,52.0,51.0,29.93,ESE,114,0.0,0.0,96,0.00,,,0.01,,2013-03-22 07:22:00,
2013-03-22 03:32:00,52.0,51.0,29.93,ESE,114,0.0,0.0,97,0.00,,,0.01,,2013-03-22 07:32:00,
2013-03-22 03:42:00,52.0,51.0,29.93,ESE,114,0.0,0.0,97,0.00,,,0.01,,2013-03-22 07:42:00,
2013-03-22 03:52:00,52.0,51.0,29.93,ESE,114,0.0,0.0,97,0.00,,,0.01,,2013-03-22 07:52:00,
2013-03-22 04:03:00,52.0,51.0,29.93,ESE,114,0.0,0.0,97,0.00,,,0.01,,2013-03-22 08:03:00,
2013-03-22 04:13:00,52.0,51.0,29.93,ESE,114,0.0,0.0,97,0.00,,,0.01,,2013-03-22 08:13:00,
2013-03-22 04:22:00,52.0,51.0,29.92,ESE,114,0.0,0.0,97,0.00,,,0.01,,2013-03-22 08:22:00,
2013-03-22 04:32:00,52.0,51.0,29.92,ESE,114,0.0,0.0,97,0.00,,,0.01,,2013-03-22 08:32:00,
2013-03-22 04:42:00,52.0,51.0,29.92,ESE,114,0.0,0.0,97,0.00,,,0.01,,2013-03-22 08:42:00,
2013-03-22 04:52:00,52.0,51.0,29.92,ESE,114,0.0,0.0,97,0.00,,,0.01,,2013-03-22 08:52:00,
2013-03-22 05:03:00,52.0,51.0,29.91,ESE,114,0.0,0.0,98,0.00,,,0.01,,2013-03-22 09:03:00,
2013-03-22 05:12:00,52.0,51.0,29.91,ESE,114,0.0,0.0,98,0.00,,,0.01,,2013-03-22 09:12:00,
2013-03-22 05:22:00,52.0,51.0,29.91,ESE,114,0.0,0.0,98,0.00,,,0.01,,2013-03-22 09:22:00,
2013-03-22 05:33:00,52.0,51.0,29.91,ESE,114,0.0,0.0,98,0.00,,,0.01,,2013-03-22 09:33:00,
2013-03-22 05:42:00,52.0,51.0,29.91,ESE,114,0.0,0.0,98,0.00,,,0.01,,2013-03-22 09:42:00,
2013-03-22 05:53:00,52.0,51.0,29.92,ESE,114,0.0,0.0,98,0.00,,,0.01,,2013-03-22 09:53:00,
2013-03-22 06:04:00,52.0,51.0,29.92,ESE,114,0.0,0.0,98,0.00,,,0.01,,2013-03-22 10:04:00,
2013-03-22 06:12:00,52.0,51.0,29.92,ESE,114,0.0,0.0,98,0.00,,,0.01,,2013-03-22 10:12:00,
2013-03-22 06:23:00,52.0,51.0,29.93,ESE,114,0.0,0.0,98,0.00,,,0.01,,2013-03-22 10:23:00,
2013-03-22 06:33:00,52.0,51.0,29.94,ESE,114,0.0,0.0,98,0.00,,,0.00,,2013-03-22 10:33:00,
2013-03-22 06:42:00,52.0,51.0,29.94,ESE,114,0.0,0.0,98,0.00,,,0.00,,2013-03-22 10:42:00,
2013-03-22 06:52:00,52.0,51.0,29.94,ESE,114,0.0,0.0,98,0.00,,,0.00,,2013-03-22 10:52:00,
2013-03-22 07:03:00,52.0,51.0,29.95,ESE,114,0.0,0.0,98,0.00,,,0.00,,2013-03-22 11:03:00,
2013-03-22 07:12:00,52.0,51.0,29.95,ESE,114,0.0,0.0,98,0.00,,,0.00,,2013-03-22 11:12:00,
2013-03-22 07:22:00,52.0,51.0,29.96,ESE,114,0.0,0.0,98,0.00,,,0.00,,2013-03-22 11:22:00,
2013-03-22 07:33:00,52.0,51.0,29.96,ESE,114,0.0,0.0,98,0.00,,,0.00,,2013-03-22 11:33:00,
2013-03-22 07:42:00,52.0,51.0,29.96,ESE,114,0.0,0.0,98,0.00,,,0.00,,2013-03-22 11:42:00,
2013-03-22 07:52:00,52.0,52.0,29.97,ESE,114,0.0,0.0,99,0.00,,,0.00,,2013-03-22 11:52:00,
2013-03-22 08:02:00,53.0,53.0,29.98,ESE,115,0.0,0.0,99,0.00,,,0.00,,2013-03-22 12:02:00,
2013-03-22 08:12:00,53.0,53.0,29.98,ESE,115,0.0,0.0,99,0.00,,,0.00,,2013-03-22 12:12:00,
2013-03-22 08:22:00,53.0,53.0,29.98,ESE,115,0.0,0.0,99,0.00,,,0.00,,2013-03-22 12:22:00,
2013-03-22 08:32:00,55.0,55.0,29.98,ESE,115,0.0,0.0,99,0.00,,,0.00,,2013-03-22 12:32:00,
2013-03-22 08:42:00,55.0,55.0,29.98,ESE,115,0.0,0.0,99,0.00,,,0.00,,2013-03-22 12:42:00,
2013-03-22 08:52:00,57.0,57.0,29.98,ESE,115,0.0,0.0,100,0.00,,,0.00,,2013-03-22 12:52:00,
2013-03-22 09:02:00,60.0,60.0,29.99,ESE,115,0.0,0.0,100,0.00,,,0.00,,2013-03-22 13:02:00,
2013-03-22 09:12:00,60.0,60.0,29.99,ESE,115,0.0,0.0,100,0.00,,,0.00,,2013-03-22 13:12:00,
2013-03-22 09:22:00,62.0,62.0,29.99,ESE,115,1.0,2.0,100,0.00,,,0.00,,2013-03-22 13:22:00,
2013-03-22 09:32:00,64.0,64.0,30.00,ESE,115,0.0,0.0,99,0.00,,,0.00,,2013-03-22 13:32:00,
2013-03-22 09:42:00,64.0,64.0,30.00,ESE,115,0.0,0.0,99,0.00,,,0.00,,2013-03-22 13:42:00,
2013-03-22 09:52:00,67.0,65.0,30.00,ESE,115,0.0,2.0,92,0.00,,,0.00,,2013-03-22 13:52:00,
2013-03-22 10:03:00,69.0,64.0,30.01,ESE,115,0.0,0.0,85,0.00,,,0.00,,2013-03-22 14:03:00,
2013-03-22 10:12:00,69.0,64.0,30.01,ESE,115,0.0,0.0,85,0.00,,,0.00,,2013-03-22 14:12:00,
2013-03-22 10:22:00,72.0,64.0,30.01,ESE,115,1.0,3.0,75,0.00,,,0.00,,2013-03-22 14:22:00,
2013-03-22 10:32:00,74.0,62.0,30.01,South,171,3.0,7.0,67,0.00,,,0.00,,2013-03-22 14:32:00,
2013-03-22 10:43:00,74.0,62.0,30.01,South,171,3.0,7.0,67,0.00,,,0.00,,2013-03-22 14:43:00,
2013-03-22 10:52:00,75.0,62.0,30.01,ESE,110,4.0,9.0,63,0.00,,,0.00,,2013-03-22 14:52:00,
2013-03-22 11:03:00,74.0,61.0,30.02,East,100,4.0,9.0,65,0.00,,,0.00,,2013-03-22 15:03:00,
2013-03-22 11:12:00,74.0,61.0,30.02,East,100,4.0,9.0,65,0.00,,,0.00,,2013-03-22 15:12:00,
2013-03-22 11:22:00,74.0,61.0,30.02,SE,140,3.0,9.0,64,0.00,,,0.00,,2013-03-22 15:22:00,
2013-03-22 11:33:00,74.0,61.0,30.02,East,95,3.0,9.0,65,0.00,,,0.00,,2013-03-22 15:33:00,
2013-03-22 11:43:00,74.0,61.0,30.02,East,95,3.0,9.0,65,0.00,,,0.00,,2013-03-22 15:43:00,
2013-03-22 11:52:00,74.0,61.0,30.02,SE,146,4.0,8.0,65,0.00,,,0.00,,2013-03-22 15:52:00,
2013-03-22 12:03:00,75.0,62.0,30.02,SSE,152,4.0,11.0,65,0.00,,,0.00,,2013-03-22 16:03:00,
2013-03-22 12:13:00,76.0,63.0,30.02,East,85,4.0,13.0,65,0.00,,,0.00,,2013-03-22 16:13:00,
2013-03-22 12:23:00,76.0,63.0,30.02,East,85,4.0,13.0,65,0.00,,,0.00,,2013-03-22 16:23:00,
2013-03-22 12:32:00,75.0,62.0,30.02,ESE,108,5.0,10.0,65,0.00,,,0.00,,2013-03-22 16:32:00,
2013-03-22 12:42:00,75.0,62.0,30.02,ESE,108,5.0,10.0,65,0.00,,,0.00,,2013-03-22 16:42:00,
2013-03-22 12:52:00,76.0,63.0,30.02,ESE,113,6.0,13.0,64,0.00,,,0.00,,2013-03-22 16:52:00,
2013-03-22 13:12:00,74.0,62.0,30.01,SSW,199,4.0,10.0,67,0.00,,,0.00,,2013-03-22 17:12:00,
2013-03-22 13:23:00,74.0,62.0,30.01,SSW,199,4.0,10.0,67,0.00,,,0.00,,2013-03-22 17:23:00,
2013-03-22 13:32:00,74.0,62.0,30.01,SSW,199,4.0,10.0,67,0.00,,,0.00,,2013-03-22 17:32:00,
2013-03-22 13:42:00,74.0,62.0,30.01,SSW,199,4.0,10.0,67,0.00,,,0.00,,2013-03-22 17:42:00,
2013-03-22 13:52:00,72.0,61.0,30.01,ESE,104,4.0,13.0,69,0.00,,,0.00,,2013-03-22 17:52:00,
2013-03-22 14:02:00,73.0,62.0,30.00,SSE,161,5.0,14.0,69,0.00,,,0.00,,2013-03-22 18:02:00,
2013-03-22 14:12:00,73.0,62.0,30.00,SSE,161,5.0,14.0,69,0.00,,,0.00,,2013-03-22 18:12:00,
2013-03-22 14:22:00,73.0,61.0,29.99,SSE,159,6.0,16.0,67,0.00,,,0.00,,2013-03-22 18:22:00,
2013-03-22 14:33:00,75.0,63.0,29.98,SE,146,5.0,12.0,66,0.00,,,0.00,,2013-03-22 18:33:00,
2013-03-22 14:42:00,75.0,63.0,29.98,SE,146,5.0,12.0,66,0.00,,,0.00,,2013-03-22 18:42:00,
2013-03-22 14:52:00,75.0,62.0,29.97,ESE,117,7.0,14.0,64,0.00,,,0.00,,2013-03-22 18:52:00,
2013-03-22 15:02:00,75.0,62.0,29.97,ESE,111,4.0,11.0,64,0.00,,,0.00,,2013-03-22 19:02:00,
2013-03-22 15:12:00,75.0,62.0,29.97,ESE,111,4.0,11.0,64,0.00,,,0.00,,2013-03-22 19:12:00,
2013-03-22 15:22:00,74.0,61.0,29.96,SE,134,4.0,14.0,65,0.00,,,0.00,,2013-03-22 19:22:00,
2013-03-22 15:32:00,73.0,61.0,29.96,SSE,156,5.0,13.0,66,0.00,,,0.00,,2013-03-22 19:32:00,
2013-03-22 15:42:00,73.0,61.0,29.96,SSE,156,5.0,13.0,66,0.00,,,0.00,,2013-03-22 19:42:00,
2013-03-22 15:52:00,74.0,62.0,29.96,SE,139,5.0,16.0,67,0.00,,,0.00,,2013-03-22 19:52:00,
2013-03-22 16:02:00,74.0,62.0,29.95,ESE,116,4.0,9.0,66,0.00,,,0.00,,2013-03-22 20:02:00,
2013-03-22 16:12:00,74.0,62.0,29.95,ESE,116,4.0,9.0,66,0.00,,,0.00,,2013-03-22 20:12:00,
2013-03-22 16:22:00,73.0,61.0,29.95,SE,128,5.0,11.0,67,0.00,,,0.00,,2013-03-22 20:22:00,
2013-03-22 16:32:00,75.0,63.0,29.94,SE,138,6.0,13.0,67,0.00,,,0.00,,2013-03-22 20:32:00,
2013-03-22 16:43:00,75.0,63.0,29.94,SE,138,6.0,13.0,67,0.00,,,0.00,,2013-03-22 20:43:00,
2013-03-22 16:52:00,76.0,62.0,29.94,SE,132,8.0,13.0,63,0.00,,,0.00,,2013-03-22 20:52:00,
2013-03-22 17:03:00,75.0,63.0,29.93,SE,129,4.0,13.0,66,0.00,,,0.00,,2013-03-22 21:03:00,
2013-03-22 17:12:00,76.0,63.0,29.93,SE,136,6.0,11.0,65,0.00,,,0.00,,2013-03-22 21:12:00,
2013-03-22 17:22:00,76.0,63.0,29.93,SE,136,6.0,11.0,65,0.00,,,0.00,,2013-03-22 21:22:00,
2013-03-22 17:33:00,75.0,63.0,29.93,South,184,4.0,13.0,66,0.00,,,0.00,,2013-03-22 21:33:00,
2013-03-22 17:43:00,75.0,63.0,29.93,South,184,4.0,13.0,66,0.00,,,0.00,,2013-03-22 21:43:00,
2013-03-22 17:53:00,75.0,63.0,29.94,East,86,4.0,10.0,67,0.00,,,0.00,,2013-03-22 21:53:00,
2013-03-22 18:03:00,74.0,63.0,29.94,South,178,5.0,11.0,69,0.00,,,0.00,,2013-03-22 22:03:00,
2013-03-22 18:12:00,74.0,63.0,29.94,South,178,5.0,11.0,69,0.00,,,0.00,,2013-03-22 22:12:00,
2013-03-22 18:23:00,74.0,64.0,29.94,ESE,107,5.0,11.0,71,0.00,,,0.00,,2013-03-22 22:23:00,
2013-03-22 18:32:00,74.0,64.0,29.94,SSE,152,5.0,12.0,72,0.00,,,0.00,,2013-03-22 22:32:00,
2013-03-22 18:43:00,74.0,64.0,29.94,SSE,152,5.0,12.0,72,0.00,,,0.00,,2013-03-22 22:43:00,
2013-03-22 18:52:00,74.0,64.0,29.94,SSE,152,5.0,12.0,72,0.00,,,0.00,,2013-03-22 22:52:00,
2013-03-22 19:02:00,73.0,65.0,29.94,SE,146,4.0,10.0,76,0.00,,,0.00,,2013-03-22 23:02:00,
2013-03-22 19:12:00,73.0,65.0,29.94,SE,146,4.0,10.0,76,0.00,,,0.00,,2013-03-22 23:12:00,
2013-03-22 19:22:00,73.0,65.0,29.95,SSE,163,4.0,13.0,77,0.00,,,0.00,,2013-03-22 23:22:00,
2013-03-22 19:32:00,73.0,66.0,29.95,SE,138,2.0,7.0,78,0.00,,,0.00,,2013-03-22 23:32:00,
2013-03-22 19:42:00,73.0,66.0,29.95,SE,138,2.0,7.0,78,0.00,,,0.00,,2013-03-22 23:42:00,
2013-03-22 19:52:00,73.0,66.0,29.95,SE,139,2.0,7.0,80,0.00,,,0.00,,2013-03-22 23:52:00,
2013-03-22 20:02:00,73.0,67.0,29.95,SE,140,2.0,7.0,81,0.00,,,0.00,,2013-03-23 00:02:00,
2013-03-22 20:12:00,73.0,67.0,29.95,SE,140,2.0,7.0,81,0.00,,,0.00,,2013-03-23 00:12:00,
2013-03-22 20:23:00,73.0,68.0,29.95,SSE,155,2.0,7.0,83,0.00,,,0.00,,2013-03-23 00:23:00,
2013-03-22 20:33:00,73.0,68.0,29.95,SSE,148,3.0,7.0,84,0.00,,,0.00,,2013-03-23 00:33:00,
2013-03-22 20:42:00,73.0,68.0,29.95,SSE,148,3.0,7.0,84,0.00,,,0.00,,2013-03-23 00:42:00,
2013-03-22 20:52:00,73.0,68.0,29.96,South,169,3.0,7.0,84,0.00,,,0.00,,2013-03-23 00:52:00,
2013-03-22 21:03:00,73.0,68.0,29.96,SE,130,2.0,8.0,85,0.00,,,0.00,,2013-03-23 01:03:00,
2013-03-22 21:12:00,73.0,68.0,29.96,SE,130,2.0,8.0,85,0.00,,,0.00,,2013-03-23 01:12:00,
2013-03-22 21:22:00,73.0,68.0,29.96,SSE,159,3.0,10.0,85,0.00,,,0.00,,2013-03-23 01:22:00,
2013-03-22 21:32:00,73.0,69.0,29.97,South,181,1.0,7.0,86,0.00,,,0.00,,2013-03-23 01:32:00,
2013-03-22 21:42:00,73.0,69.0,29.97,South,181,1.0,7.0,86,0.00,,,0.00,,2013-03-23 01:42:00,
2013-03-22 21:52:00,73.0,69.0,29.98,SSE,150,2.0,9.0,86,0.00,,,0.00,,2013-03-23 01:52:00,
2013-03-22 22:02:00,73.0,69.0,29.98,SSE,153,2.0,8.0,86,0.00,,,0.00,,2013-03-23 02:02:00,
2013-03-22 22:12:00,73.0,69.0,29.98,SSE,153,2.0,8.0,86,0.00,,,0.00,,2013-03-23 02:12:00,
2013-03-22 22:22:00,73.0,69.0,29.98,South,185,2.0,6.0,87,0.00,,,0.00,,2013-03-23 02:22:00,
2013-03-22 22:32:00,73.0,69.0,29.99,South,181,1.0,5.0,87,0.00,,,0.00,,2013-03-23 02:32:00,
2013-03-22 22:42:00,73.0,69.0,29.99,South,181,1.0,5.0,87,0.00,,,0.00,,2013-03-23 02:42:00,
2013-03-22 22:52:00,73.0,69.0,29.98,SSE,148,3.0,10.0,88,0.00,,,0.00,,2013-03-23 02:52:00,
2013-03-22 23:02:00,73.0,70.0,29.99,SSE,151,1.0,6.0,90,0.00,,,0.00,,2013-03-23 03:02:00,
2013-03-22 23:12:00,73.0,70.0,29.99,SSE,151,1.0,6.0,90,0.00,,,0.00,,2013-03-23 03:12:00,
2013-03-22 23:23:00,73.0,71.0,29.98,East,94,2.0,5.0,92,0.00,,,0.00,,2013-03-23 03:23:00,
2013-03-22 23:33:00,72.0,70.0,30.00,SE,146,0.0,3.0,93,0.00,,,0.00,,2013-03-23 03:33:00,
2013-03-22 23:43:00,72.0,70.0,30.00,SE,146,0.0,3.0,93,0.00,,,0.00,,2013-03-23 03:43:00,
2013-03-22 23:53:00,72.0,70.0,30.00,SSE,165,0.0,4.0,93,0.00,,,0.00,,2013-03-23 03:53:00,